Weather History for Springfield, MO

Change the Weather History Date:

Tuesday, April 2, 2013

  Actual Average Record
Temperature  
Mean Temperature 38 °F 52 °F  
Max Temperature 41 °F 63 °F 89 °F (1946)
Min Temperature 34 °F 40 °F 20 °F (1936)
Degree Days  
Heating Degree Days 27 14  
Month to date heating degree days 47 28  
Since 1 July heating degree days 4062 4202  
Cooling Degree Days 0 0  
Month to date cooling degree days 0 0  
Year to date cooling degree days 0 3  
Moisture  
Dew Point 26 °F    
Average Humidity 63    
Maximum Humidity 75    
Minimum Humidity 50    
Precipitation  
Precipitation 0.09 in 0.13 in 1.56 in (1965)
Month to date precipitation 0.09 0.26  
Year to date precipitation 10.20 8.87  
Snow  
Snow T in - - ()
Month to date snowfall T  
Since 1 July snowfall 11.3  
Snow Depth 0.00 in    
Sea Level Pressure  
Sea Level Pressure 30.26 in    
Wind  
Wind Speed 7 mph (East)    
Max Wind Speed 13 mph    
Max Gust Speed 16 mph    
Visibility 10 miles    
Events Rain    
T = Trace of Precipitation, MM = Missing Value Source: NWS Daily Summary

Daily Weather History Graph

Daily Weather History Graph

Search for Another Location

Airport:

Trip Planner

Search our weather history database for the weather conditions in past years. The results will help you decide how hot, cold, wet, or windy it might be!

Date:

Astronomy

Apr. 02, 2013 Rise Set
Actual Time 6:57 AM CDT 7:37 PM CDT
Civil Twilight 6:31 AM CDT 8:03 PM CDT
Nautical Twilight 6:00 AM CDT 8:34 PM CDT
Astronomical Twilight 5:28 AM CDT 9:06 PM CDT
Moon 1:37 AM CDT (4/2) 11:54 AM CDT (4/2)
Length of Visible Light 13h 32m
Length of Day
12h 40m
Waning Gibbous, 55% of the Moon is Illuminated
Apr 2
Waning Gibbous
Apr 2
Last Quarter
Apr 10
New
Apr 18
First Quarter
Apr 25
Full

Hourly Weather History & Observations

Time (CDT) Temp. Windchill Dew Point Humidity Pressure Visibility Wind Dir Wind Speed Gust Speed Precip Events Conditions
12:52 AM 39.9 °F 32.5 °F 27.0 °F 60% 30.22 in 10.0 mi NNE 12.7 mph - 0.00 in Rain Light Rain
1:52 AM 39.9 °F 33.9 °F 26.1 °F 58% 30.24 in 10.0 mi NE 9.2 mph - 0.00 in   Overcast
2:52 AM 39.9 °F 34.5 °F 24.1 °F 53% 30.24 in 10.0 mi NE 8.1 mph - N/A   Overcast
3:52 AM 39.9 °F 35.8 °F 23.0 °F 51% 30.26 in 10.0 mi NE 5.8 mph - N/A   Overcast
4:52 AM 37.9 °F 32.7 °F 26.1 °F 62% 30.23 in 10.0 mi NE 6.9 mph - 0.01 in Rain Light Rain
5:52 AM 37.0 °F 31.6 °F 27.0 °F 67% 30.25 in 10.0 mi ENE 6.9 mph - 0.02 in   Overcast
6:52 AM 37.0 °F 30.4 °F 25.0 °F 62% 30.27 in 10.0 mi NE 9.2 mph - 0.00 in Rain Light Rain
7:52 AM 35.1 °F 28.6 °F 26.1 °F 70% 30.28 in 5.0 mi ENE 8.1 mph - 0.05 in Rain Rain
8:52 AM 34.0 °F 28.8 °F 27.0 °F 75% 30.30 in 10.0 mi ESE 5.8 mph - 0.01 in Rain Light Rain
9:52 AM 36.0 °F 31.1 °F 27.0 °F 70% 30.31 in 10.0 mi East 5.8 mph - 0.00 in   Overcast
10:52 AM 36.0 °F 29.0 °F 26.1 °F 67% 30.30 in 10.0 mi East 9.2 mph - 0.00 in   Overcast
11:52 AM 37.0 °F 31.0 °F 26.1 °F 65% 30.30 in 10.0 mi ESE 8.1 mph - N/A   Overcast
12:52 PM 37.9 °F 32.1 °F 27.0 °F 65% 30.29 in 10.0 mi ESE 8.1 mph - N/A   Overcast
1:52 PM 39.0 °F 32.8 °F 27.0 °F 62% 30.29 in 10.0 mi East 9.2 mph - 0.00 in Rain Light Rain
2:52 PM 39.0 °F 32.8 °F 27.0 °F 62% 30.27 in 10.0 mi ENE 9.2 mph - 0.00 in   Overcast
3:52 PM 39.9 °F 35.8 °F 26.1 °F 58% 30.27 in 10.0 mi Variable 5.8 mph - N/A   Overcast
4:52 PM 41.0 °F 36.4 °F 25.0 °F 53% 30.26 in 10.0 mi East 6.9 mph - N/A   Overcast
5:52 PM 41.0 °F 37.1 °F 25.0 °F 53% 30.25 in 10.0 mi East 5.8 mph - N/A   Overcast
6:52 PM 41.0 °F 37.1 °F 25.0 °F 53% 30.25 in 10.0 mi East 5.8 mph - N/A   Overcast
7:52 PM 39.9 °F 36.7 °F 27.0 °F 60% 30.25 in 10.0 mi SE 4.6 mph - N/A   Overcast
8:52 PM 39.0 °F 35.7 °F 28.0 °F 65% 30.25 in 10.0 mi ESE 4.6 mph - N/A   Partly Cloudy
9:52 PM 39.0 °F 36.8 °F 27.0 °F 62% 30.26 in 10.0 mi East 3.5 mph - N/A   Clear
10:52 PM 39.0 °F 35.7 °F 27.0 °F 62% 30.27 in 10.0 mi ENE 4.6 mph - N/A   Clear
11:52 PM 37.0 °F 34.5 °F 28.0 °F 70% 30.27 in 10.0 mi ESE 3.5 mph - N/A   Clear